Regional Weather Roundup
Issued by NWS

Home | Current Version | Previous Version | Text Only | Print | Product List | Glossary Off
Versions: 1 2 3 4 5 6 7 8 9 10 11 12 13 14 15 16 17 18 19 20 21 22 23 24 25 26 27 28 29 30 31 32 33 34 35 36 37 38 39 40 41 42 43 44 45 46 47 48 49 50

000
ASUS43 KLMK 230202
RWRKY
KENTUCKY REGIONAL WEATHER ROUNDUP
NATIONAL WEATHER SERVICE LOUISVILLE KY
1000 PM EDT SAT APR 22 2017

NOTE "FAIR" INDICATES FEW OR NO CLOUDS BELOW 12,000 FEET
WITH NO SIGNIFICANT WEATHER AND/OR OBSTRUCTIONS TO VISIBILITY.

KYZ001>023-026-027-061>063-070>075-230300-
WESTERN AND SOUTH CENTRAL KENTUCKY

CITY           SKY/WX    TMP DP  RH WIND       PRES   REMARKS
PADUCAH        CLOUDY    54  44  69 NE10      29.98R
HENDERSON      NOT AVBL
OWENSBORO      CLEAR     52  41  66 NE10      30.01R
HOPKINSVILLE   CLOUDY    53  49  85 NE14      29.94R
BOWLING GREEN  CLOUDY    53  49  86 NE9G21    29.95R
GLASGOW        NOT AVBL
$$

KYZ024-025-028>034-038-045-046-053-230300-
NORTH CENTRAL KENTUCKY

CITY           SKY/WX    TMP DP  RH WIND       PRES   REMARKS
LOUISVILLE/SDF PTCLDY    51  41  68 NE5       30.02R
LOUISVILLE/LOU CLEAR     51  40  65 NE5       30.03R
FORT KNOX      MOCLDY    50  42  73 NE8       29.99R
$$

KYZ035>037-039>044-047>052-055>060-089>105-230300-
NORTHEAST KENTUCKY

CITY           SKY/WX    TMP DP  RH WIND       PRES   REMARKS
LEXINGTON      CLOUDY    48  42  80 NE7       30.01R
COVINGTON      PTCLDY    50  34  54 NE14      30.05R
FRANKFORT      CLEAR     50  39  66 NE5       30.00R
$$

KYZ054-064>069-076>088-106>120-230300-
SOUTHEAST KENTUCKY

CITY           SKY/WX    TMP DP  RH WIND       PRES   REMARKS
JACKSON        CLOUDY    47  46  97 VRB3      29.98S FOG
LONDON         CLOUDY    49  46  90 NE7       29.95R
SOMERSET       NOT AVBL
MIDDLESBORO    CLOUDY    52  52  99 CALM      29.94R
MONTICELLO     CLOUDY    50  48  93 VRB5G20   29.96R
$$




USA.gov is the U.S. government's official web portal to all federal, state and local government web resources and services.